{"data":{"norad_id":50837,"intl_designator":"2022-001AL","name":"STARLINK-3318","alt_names":[],"object_type":"PAYLOAD","status":"ACTIVE","operator":null,"country":"US","launch_date":"2022-01-06","launch_site_code":"AFETR","launch_vehicle":null,"mission":null,"orbit_class":"UNKNOWN","rcs_meters":null,"size_class":null,"mass_kg":null,"dimensions":null,"purposes":["comms"],"wikipedia_slug":null,"has_3d_model":false,"image_url":null,"decayed_at":null,"tle_current":{"epoch":"2026-05-24T20:12:29.338272Z","epoch_age_seconds":88034,"freshness":"FRESH","line1":"1 50837U 22001AL  26144.84200623  .00000208  00000+0  31148-4 0  9990","line2":"2 50837  53.2134 187.2566 0000909  83.6318 276.4778 15.08838789241909","mean_motion":15.08838789,"eccentricity":9.09e-5,"inclination_deg":53.2134,"raan_deg":187.2566,"arg_perigee_deg":83.6318,"mean_anomaly_deg":276.4778,"bstar":3.1148e-5,"rev_number":24190,"period_min":95.437631276326,"perigee_km":539.11825484528,"apogee_km":540.37592617294,"semimajor_km":6917.8840905091,"source":"CELESTRAK","updated_at":"2026-05-25T13:38:16.880996Z"}}}